STARLINK-34102, 63806

Orbit data source: Space-Track

STARLINK-34102, 63806 is a payload satellite owned by SpaceX/Seattle (US) in LEO that was launched on Sun, 04 May 2025 UTC via an FALCON 9 launch vehicle from the Air Force Eastern Test Range (AFETR). Payload-class satellites include a variety of spacecraft equipped with specific instruments for various scientific and technological missions. These include communications satellites like Starlink; space stations such as the ISS; scientific satellites like the Hubble; Earth observation satellites from companies like Planet Labs, Umbra, and HawkEye 360; GPS; miniature CubeSats for education and research; and military/defense satellites.

Loading next visibility...
Identifier
63806, 2025-092C
Orbit
LEO
Country
Flag of USUS
Related business
Manufacturer
SpaceX/Seattle
Mission
Operational Commercial Communications
Bus & Motor
STARLINK V2MO, Unknown motor
Mass
575 kg wet, ~530 kg dry
Launch date (UTC)
2025-05-04 (6 months ago)
Launch vehicle
FALCON 9
Launch site
Air Force Eastern Test Range (AFETR)
Object type
Payload
Rocket body
Debris
Shape & HBR
Box + 2 Pan, 17.7 m
Radar Cross Section
36.964 m², Large (>1 m²)

Expand to show TLE details & history
Last TLE update: 9 hours ago

TLE from 9 hours ago
0 STARLINK-34102
1 63806U 25092C   25302.41269334  .00027499  00000-0  10042-2 0  9995
2 63806  43.0057 194.2710 0000782 299.7966  60.2807 15.27610928 28580
Epoch: 2025-10-29T09:54Z
TLE epoch observation values (Epoch: 2025-10-29T09:54:16.704Z)
Latitude
-0.00008°
Longitude
7.71511°
Altitude
482.467 km
Speed
7.626 km/s
True Right ascension
12h 57m 05s
True Declination
0° 00' 00"
Sunlit
Object was in daylight at epoch
Visualization orbit readout
Latitude
Unknown
Longitude
Unknown
Altitude
Unknown
Speed
Unknown
Apparent Right ascension
Unknown
Apparent Declination
Unknown
Sunlit
N/A
Visualization observer readout
Local Sidereal Time
14:55:41
Azimuth
Unknown
Elevation
Unknown
Doppler factor
Unknown
Orbital elements
Apogee altitude
485.437 km
Perigee altitude
484.364 km
Semi-major axis
6,863.038 km
Eccentricity
0.00008
Inclination
43.0057°
RAAN
194.271°
Arg. of periapsis
299.7966°
True anomaly
60.28848°
Mean anomaly
60.2807°
Eccentric anomaly
60.28459°
Mean motion
3.81741 °/min
Orbital period
94.3 mins
BSTAR
0.0010042
Loading maneuver chart data...
Computing Atmospheric mass density...
Loading historical data...
Loading historical data...
Loading historical data...
Loading historical data...
Loading historical data...
Loading historical data...
Loading historical data...

Documentation

Showing up to 5 results
|